JFA1629 SBBE-SBPB

Flight info

Callsign JFA1629
Flight time N/A
Altitude 29000
Route ITAKI UZ81 KADOT
Aircraft TBM8/L-SDFGRWY/S

Departure

Time 2026-04-30 21:37
Airport Val de Cans/Júlio Cezar Ribeiro International Airport (SBBE)

Arrival

Time N/A
Airport Parnaíba - Prefeito Doutor João Silva Filho International Airport (SBPB)
Time Latitude Longitude Altitude Speed Heading
2026-04-30 21:04 -1.38679 -48.47517 60 ft 0 kts 95°
2026-04-30 21:16 -1.38679 -48.47522 58 ft 2 kts 95°
2026-04-30 21:16 -1.38677 -48.47538 60 ft 2 kts 94°
2026-04-30 21:16 -1.38678 -48.47554 60 ft 2 kts 49°
2026-04-30 21:17 -1.38692 -48.47558 56 ft 1 kts
2026-04-30 21:17 -1.38669 -48.47556 54 ft 10 kts
2026-04-30 21:17 -1.38562 -48.47548 60 ft 1 kts
2026-04-30 21:17 -1.38561 -48.47548 60 ft 0 kts
2026-04-30 21:30 -1.38556 -48.47548 60 ft 2 kts
2026-04-30 21:31 -1.38392 -48.47579 59 ft 0 kts 274°
2026-04-30 21:32 -1.38392 -48.47581 59 ft 2 kts 273°
2026-04-30 21:33 -1.38386 -48.47624 59 ft 0 kts 280°
2026-04-30 21:33 -1.38223 -48.47645 59 ft 26 kts
2026-04-30 21:33 -1.38016 -48.47628 57 ft 31 kts
2026-04-30 21:34 -1.37776 -48.47608 58 ft 38 kts
2026-04-30 21:34 -1.37449 -48.47535 53 ft 12 kts 20°
2026-04-30 21:34 -1.37414 -48.47544 57 ft 0 kts 291°
2026-04-30 21:35 -1.37414 -48.47554 59 ft 6 kts 258°
2026-04-30 21:35 -1.37453 -48.47579 58 ft 0 kts 183°
2026-04-30 21:36 -1.37583 -48.47590 58 ft 43 kts 185°
2026-04-30 21:37 -1.39606 -48.47851 476 ft 122 kts 185°
2026-04-30 21:37 -1.40498 -48.47967 696 ft 139 kts 182°
2026-04-30 21:37 -1.41481 -48.47958 1154 ft 138 kts 169°
2026-04-30 21:37 -1.42426 -48.47781 1592 ft 136 kts 151°
2026-04-30 21:38 -1.43222 -48.47291 2044 ft 135 kts 142°
2026-04-30 21:38 -1.44007 -48.46784 2588 ft 131 kts 140°
2026-04-30 21:38 -1.44752 -48.46298 3120 ft 126 kts 141°
2026-04-30 21:38 -1.45491 -48.45827 3579 ft 126 kts 141°
2026-04-30 21:39 -1.46247 -48.45360 4025 ft 129 kts 141°
2026-04-30 21:39 -1.47007 -48.44880 4468 ft 128 kts 140°
2026-04-30 21:39 -1.47743 -48.44376 4908 ft 129 kts 138°
2026-04-30 21:39 -1.48183 -48.43640 5313 ft 125 kts 93°
2026-04-30 21:40 -1.48224 -48.42774 5765 ft 125 kts 92°
2026-04-30 21:40 -1.48282 -48.41905 6184 ft 129 kts 93°
2026-04-30 21:40 -1.48332 -48.40993 6572 ft 133 kts 92°
2026-04-30 21:40 -1.48378 -48.40068 7005 ft 134 kts 92°
2026-04-30 21:41 -1.48325 -48.39140 7446 ft 134 kts 79°
2026-04-30 21:41 -1.48139 -48.38219 7855 ft 135 kts 79°
2026-04-30 21:41 -1.47954 -48.37293 8282 ft 137 kts 79°
2026-04-30 21:41 -1.47763 -48.36356 8704 ft 138 kts 79°
2026-04-30 21:42 -1.47566 -48.35411 9117 ft 141 kts 79°
2026-04-30 21:42 -1.47368 -48.34447 9550 ft 142 kts 80°
2026-04-30 21:42 -1.47367 -48.33469 9975 ft 141 kts 95°
2026-04-30 21:42 -1.47426 -48.32482 10355 ft 143 kts 92°
2026-04-30 21:43 -1.47471 -48.31486 10735 ft 144 kts 92°
2026-04-30 21:43 -1.47462 -48.30824 10995 ft 144 kts 81°
2026-04-30 21:43 -1.47074 -48.29530 11480 ft 147 kts 73°
2026-04-30 21:43 -1.46862 -48.28886 11733 ft 147 kts 73°
2026-04-30 21:44 -1.46539 -48.27915 12110 ft 148 kts 73°
2026-04-30 21:44 -1.46214 -48.26940 12483 ft 149 kts 73°
2026-04-30 21:44 -1.45898 -48.25989 12841 ft 150 kts 73°
2026-04-30 21:44 -1.45581 -48.24996 13206 ft 150 kts 77°
2026-04-30 21:45 -1.45441 -48.23963 13567 ft 150 kts 91°
2026-04-30 21:45 -1.45611 -48.22932 13912 ft 151 kts 102°
2026-04-30 21:45 -1.45878 -48.21915 14230 ft 152 kts 103°
2026-04-30 21:45 -1.46165 -48.20894 14552 ft 153 kts 104°
2026-04-30 21:46 -1.46453 -48.19883 14866 ft 154 kts 104°
2026-04-30 21:46 -1.46749 -48.18851 15184 ft 155 kts 104°
2026-04-30 21:46 -1.47047 -48.17812 15500 ft 156 kts 104°
2026-04-30 21:46 -1.47345 -48.16767 15814 ft 157 kts 104°
2026-04-30 21:47 -1.47645 -48.15717 16127 ft 158 kts 104°
2026-04-30 21:47 -1.47946 -48.14657 16442 ft 159 kts 104°
2026-04-30 21:47 -1.48250 -48.13592 16759 ft 160 kts 104°
2026-04-30 21:47 -1.48556 -48.12521 17070 ft 161 kts 104°
2026-04-30 21:48 -1.48863 -48.11443 17377 ft 162 kts 104°
2026-04-30 21:48 -1.49172 -48.10359 17693 ft 162 kts 104°
2026-04-30 21:48 -1.49484 -48.09269 17999 ft 164 kts 104°
2026-04-30 21:48 -1.49796 -48.08172 18289 ft 165 kts 104°
2026-04-30 21:49 -1.50107 -48.07083 18541 ft 165 kts 104°
2026-04-30 21:49 -1.50423 -48.05974 18798 ft 166 kts 104°
2026-04-30 21:49 -1.50742 -48.04858 19051 ft 167 kts 104°
2026-04-30 21:49 -1.51060 -48.03739 19304 ft 168 kts 104°
2026-04-30 21:50 -1.51381 -48.02614 19555 ft 169 kts 104°
2026-04-30 21:50 -1.51704 -48.01484 19803 ft 169 kts 104°
2026-04-30 21:50 -1.52027 -48.00350 20051 ft 170 kts 104°
2026-04-30 21:50 -1.52351 -47.99213 20298 ft 170 kts 104°
2026-04-30 21:51 -1.52677 -47.98071 20544 ft 171 kts 104°
2026-04-30 21:51 -1.53004 -47.96925 20785 ft 172 kts 104°
2026-04-30 21:51 -1.53333 -47.95775 21025 ft 172 kts 104°
2026-04-30 21:51 -1.53661 -47.94621 21255 ft 173 kts 104°
2026-04-30 21:52 -1.53991 -47.93464 21493 ft 174 kts 104°
2026-04-30 21:52 -1.54324 -47.92299 21731 ft 174 kts 104°
2026-04-30 21:52 -1.54655 -47.91147 21961 ft 175 kts 104°
2026-04-30 21:52 -1.54988 -47.89976 22191 ft 175 kts 104°
2026-04-30 21:53 -1.55323 -47.88799 22423 ft 176 kts 104°
2026-04-30 21:53 -1.55659 -47.87618 22660 ft 177 kts 104°
2026-04-30 21:53 -1.55996 -47.86436 22888 ft 177 kts 104°
2026-04-30 21:53 -1.56335 -47.85249 23112 ft 178 kts 104°
2026-04-30 21:54 -1.56674 -47.84058 23333 ft 179 kts 104°
2026-04-30 21:54 -1.57015 -47.82861 23542 ft 179 kts 104°
2026-04-30 21:54 -1.57359 -47.81657 23714 ft 180 kts 104°
2026-04-30 21:54 -1.57703 -47.80451 23889 ft 181 kts 104°
2026-04-30 21:55 -1.58048 -47.79241 24074 ft 181 kts 104°
2026-04-30 21:55 -1.58394 -47.78026 24233 ft 182 kts 104°
2026-04-30 21:55 -1.58742 -47.76806 24401 ft 183 kts 104°
2026-04-30 21:55 -1.59091 -47.75581 24566 ft 184 kts 104°
2026-04-30 21:56 -1.59443 -47.74350 24727 ft 184 kts 104°
2026-04-30 21:56 -1.59794 -47.73115 24893 ft 185 kts 104°
2026-04-30 21:56 -1.60148 -47.71872 25058 ft 186 kts 104°
2026-04-30 21:56 -1.60504 -47.70627 25221 ft 187 kts 104°
2026-04-30 21:57 -1.60860 -47.69378 25389 ft 187 kts 104°
2026-04-30 21:57 -1.61214 -47.68138 25546 ft 188 kts 103°
2026-04-30 21:57 -1.61573 -47.66878 25705 ft 189 kts 103°
2026-04-30 21:57 -1.61934 -47.65613 25866 ft 190 kts 103°
2026-04-30 21:58 -1.62295 -47.64344 26025 ft 190 kts 103°
2026-04-30 21:58 -1.62659 -47.63068 26185 ft 191 kts 103°
2026-04-30 21:58 -1.63024 -47.61788 26342 ft 192 kts 103°
2026-04-30 21:58 -1.63390 -47.60504 26496 ft 193 kts 103°
2026-04-30 21:59 -1.63758 -47.59212 26651 ft 193 kts 103°
2026-04-30 21:59 -1.64126 -47.57921 26815 ft 193 kts 103°
2026-04-30 21:59 -1.64496 -47.56624 26974 ft 194 kts 103°
2026-04-30 22:00 -1.65238 -47.54021 27282 ft 195 kts 103°
2026-04-30 22:00 -1.65982 -47.51406 27590 ft 196 kts 103°
2026-04-30 22:00 -1.66352 -47.50110 27735 ft 197 kts 103°
2026-04-30 22:01 -1.66728 -47.48791 27883 ft 197 kts 103°
2026-04-30 22:01 -1.67105 -47.47469 28030 ft 198 kts 103°
2026-04-30 22:01 -1.67482 -47.46144 28179 ft 199 kts 103°
2026-04-30 22:01 -1.67861 -47.44814 28328 ft 199 kts 103°
2026-04-30 22:02 -1.68241 -47.43481 28466 ft 200 kts 103°
2026-04-30 22:02 -1.68623 -47.42140 28607 ft 200 kts 103°
2026-04-30 22:02 -1.69006 -47.40797 28736 ft 201 kts 102°
2026-04-30 22:02 -1.69390 -47.39450 28875 ft 202 kts 102°
2026-04-30 22:03 -1.69779 -47.38079 28911 ft 208 kts 103°
2026-04-30 22:03 -1.70184 -47.36664 28919 ft 215 kts 103°
2026-04-30 22:03 -1.70601 -47.35206 28919 ft 222 kts 103°
2026-04-30 22:03 -1.71029 -47.33701 28922 ft 228 kts 103°
2026-04-30 22:04 -1.71469 -47.32157 28922 ft 234 kts 103°
2026-04-30 22:04 -1.71919 -47.30575 28922 ft 239 kts 103°
2026-04-30 22:04 -1.72839 -47.27385 28926 ft 240 kts 103°
2026-04-30 22:05 -1.73290 -47.25770 28928 ft 241 kts 103°
2026-04-30 22:05 -1.73739 -47.24167 28926 ft 238 kts 103°
2026-04-30 22:05 -1.74192 -47.22594 28922 ft 233 kts 103°
2026-04-30 22:05 -1.74634 -47.21051 28916 ft 229 kts 103°
2026-04-30 22:06 -1.75066 -47.19536 28911 ft 224 kts 103°
2026-04-30 22:06 -1.75898 -47.16587 28911 ft 217 kts 104°
2026-04-30 22:06 -1.76306 -47.15159 28903 ft 216 kts 104°
2026-04-30 22:07 -1.76721 -47.13716 28915 ft 219 kts 104°
2026-04-30 22:07 -1.77144 -47.12230 28915 ft 225 kts 104°
2026-04-30 22:07 -1.77579 -47.10702 28928 ft 232 kts 104°
2026-04-30 22:07 -1.78025 -47.09134 28933 ft 238 kts 104°
2026-04-30 22:08 -1.78484 -47.07523 28930 ft 242 kts 104°
2026-04-30 22:08 -1.78943 -47.05917 28925 ft 238 kts 104°
2026-04-30 22:08 -1.79392 -47.04333 28924 ft 235 kts 104°
2026-04-30 22:08 -1.79834 -47.02777 28920 ft 231 kts 104°
2026-04-30 22:09 -1.80275 -47.01230 28916 ft 232 kts 104°
2026-04-30 22:09 -1.80724 -46.99666 28917 ft 236 kts 104°
2026-04-30 22:09 -1.81171 -46.98080 28921 ft 239 kts 104°
2026-04-30 22:09 -1.81629 -46.96471 28922 ft 242 kts 104°
2026-04-30 22:10 -1.82093 -46.94842 28927 ft 245 kts 104°
2026-04-30 22:10 -1.82563 -46.93193 28927 ft 248 kts 104°
2026-04-30 22:10 -1.83039 -46.91524 28928 ft 251 kts 104°
2026-04-30 22:10 -1.83520 -46.89836 28928 ft 254 kts 104°
2026-04-30 22:11 -1.84496 -46.86402 28924 ft 259 kts 104°
2026-04-30 22:11 -1.84991 -46.84661 28926 ft 262 kts 104°
2026-04-30 22:11 -1.85494 -46.82900 28928 ft 265 kts 104°
2026-04-30 22:12 -1.86002 -46.81110 28928 ft 269 kts 104°
2026-04-30 22:12 -1.86510 -46.79323 28929 ft 266 kts 104°
2026-04-30 22:12 -1.87022 -46.77531 28928 ft 270 kts 104°
2026-04-30 22:12 -1.87538 -46.75714 28928 ft 274 kts 104°
2026-04-30 22:13 -1.88060 -46.73874 28929 ft 277 kts 104°
2026-04-30 22:13 -1.88591 -46.72021 28928 ft 275 kts 105°
2026-04-30 22:13 -1.89112 -46.70198 28929 ft 277 kts 104°
2026-04-30 22:13 -1.89633 -46.68329 28928 ft 280 kts 104°
2026-04-30 22:14 -1.90169 -46.66449 28927 ft 283 kts 104°
2026-04-30 22:14 -1.90712 -46.64554 28928 ft 285 kts 104°
2026-04-30 22:14 -1.91257 -46.62640 28929 ft 287 kts 104°
2026-04-30 22:14 -1.91803 -46.60717 28929 ft 288 kts 104°
2026-04-30 22:15 -1.92352 -46.58788 28929 ft 289 kts 104°
2026-04-30 22:15 -1.92904 -46.56846 28928 ft 291 kts 104°
2026-04-30 22:15 -1.93458 -46.54901 28928 ft 292 kts 104°
2026-04-30 22:15 -1.94013 -46.52947 28937 ft 293 kts 104°
2026-04-30 22:16 -1.94571 -46.50986 28926 ft 293 kts 104°
2026-04-30 22:16 -1.95130 -46.49019 28926 ft 294 kts 104°
2026-04-30 22:17 -1.96805 -46.43129 28928 ft 295 kts 104°
2026-04-30 22:17 -1.97367 -46.41150 28928 ft 296 kts 104°
2026-04-30 22:17 -1.98493 -46.37188 28925 ft 296 kts 104°
2026-04-30 22:18 -1.99058 -46.35205 28924 ft 297 kts 104°
2026-04-30 22:18 -2.00185 -46.31239 28929 ft 297 kts 104°
2026-04-30 22:19 -2.01314 -46.27265 28916 ft 297 kts 104°
2026-04-30 22:19 -2.01878 -46.25280 28922 ft 297 kts 104°
2026-04-30 22:19 -2.03009 -46.21300 28929 ft 297 kts 104°
2026-04-30 22:20 -2.03574 -46.19310 28924 ft 297 kts 104°
2026-04-30 22:20 -2.04705 -46.15331 28928 ft 298 kts 104°
2026-04-30 22:20 -2.05271 -46.13339 28928 ft 298 kts 104°
2026-04-30 22:21 -2.05837 -46.11347 28924 ft 298 kts 104°
2026-04-30 22:21 -2.06404 -46.09350 28928 ft 298 kts 104°
2026-04-30 22:21 -2.06963 -46.07383 28924 ft 298 kts 104°
2026-04-30 22:21 -2.07529 -46.05389 28928 ft 298 kts 104°
2026-04-30 22:22 -2.08096 -46.03394 28921 ft 298 kts 104°
2026-04-30 22:22 -2.08663 -46.01395 28928 ft 299 kts 104°
2026-04-30 22:22 -2.09231 -45.99397 28928 ft 299 kts 104°
2026-04-30 22:22 -2.09797 -45.97402 28922 ft 299 kts 104°
2026-04-30 22:23 -2.10365 -45.95403 28927 ft 299 kts 104°
2026-04-30 22:23 -2.10933 -45.93402 28923 ft 299 kts 104°
2026-04-30 22:23 -2.11501 -45.91402 28927 ft 299 kts 104°
2026-04-30 22:23 -2.12071 -45.89393 28924 ft 299 kts 104°
2026-04-30 22:24 -2.12639 -45.87392 28927 ft 300 kts 104°
2026-04-30 22:24 -2.13208 -45.85389 28922 ft 300 kts 104°
2026-04-30 22:24 -2.13771 -45.83404 28924 ft 300 kts 104°
2026-04-30 22:24 -2.14342 -45.81393 28927 ft 300 kts 104°
2026-04-30 22:25 -2.14913 -45.79384 28927 ft 300 kts 104°
2026-04-30 22:25 -2.15482 -45.77376 28919 ft 300 kts 104°
2026-04-30 22:25 -2.16051 -45.75370 28924 ft 300 kts 104°
2026-04-30 22:25 -2.16622 -45.73363 28921 ft 300 kts 104°
2026-04-30 22:26 -2.17760 -45.69349 28922 ft 300 kts 104°
2026-04-30 22:26 -2.18329 -45.67344 28927 ft 300 kts 104°
2026-04-30 22:26 -2.18899 -45.65336 28928 ft 300 kts 105°
2026-04-30 22:27 -2.19468 -45.63333 28928 ft 299 kts 105°
2026-04-30 22:27 -2.20035 -45.61329 28922 ft 299 kts 104°
2026-04-30 22:27 -2.21170 -45.57331 28926 ft 298 kts 105°
2026-04-30 22:28 -2.22301 -45.53343 28929 ft 298 kts 105°
2026-04-30 22:28 -2.22859 -45.51375 28929 ft 297 kts 105°
2026-04-30 22:29 -2.24549 -45.45415 28928 ft 296 kts 105°
2026-04-30 22:29 -2.25111 -45.43433 28928 ft 296 kts 105°
2026-04-30 22:30 -2.27354 -45.35520 28927 ft 295 kts 104°
2026-04-30 22:31 -2.28844 -45.30263 28922 ft 295 kts 105°
2026-04-30 22:32 -2.30520 -45.24347 28923 ft 294 kts 104°
2026-04-30 22:32 -2.31635 -45.20412 28917 ft 294 kts 104°
2026-04-30 22:33 -2.33304 -45.14517 28920 ft 293 kts 105°
2026-04-30 22:33 -2.34416 -45.10594 28917 ft 293 kts 105°
2026-04-30 22:34 -2.36082 -45.04709 28919 ft 293 kts 105°
2026-04-30 22:35 -2.37190 -45.00794 28922 ft 293 kts 104°
2026-04-30 22:36 -2.39409 -44.92956 28916 ft 293 kts 105°
2026-04-30 22:36 -2.39963 -44.90997 28916 ft 293 kts 105°
2026-04-30 22:37 -2.41610 -44.85134 28918 ft 293 kts 104°
2026-04-30 22:37 -2.42152 -44.83172 28916 ft 293 kts 104°
2026-04-30 22:37 -2.43244 -44.79249 28913 ft 293 kts 104°
2026-04-30 22:38 -2.44335 -44.75320 28914 ft 293 kts 105°
2026-04-30 22:38 -2.45426 -44.71396 28918 ft 293 kts 105°
2026-04-30 22:39 -2.45971 -44.69433 28917 ft 293 kts 105°
2026-04-30 22:39 -2.47607 -44.63540 28914 ft 293 kts 105°
2026-04-30 22:40 -2.49237 -44.57671 28917 ft 293 kts 105°
2026-04-30 22:41 -2.50875 -44.51773 28909 ft 293 kts 105°
2026-04-30 22:41 -2.51967 -44.47840 28908 ft 293 kts 105°
2026-04-30 22:42 -2.54151 -44.39973 28908 ft 293 kts 105°
2026-04-30 22:43 -2.55241 -44.36041 28910 ft 294 kts 105°
2026-04-30 22:43 -2.56335 -44.32102 28910 ft 294 kts 105°
2026-04-30 22:44 -2.57429 -44.28158 28910 ft 294 kts 105°
2026-04-30 22:45 -2.59419 -44.20257 28911 ft 294 kts 102°
2026-04-30 22:45 -2.60312 -44.16260 28911 ft 294 kts 102°
2026-04-30 22:46 -2.61189 -44.12264 28908 ft 294 kts 102°
2026-04-30 22:47 -2.62954 -44.04252 28906 ft 295 kts 102°
2026-04-30 22:47 -2.63829 -44.00276 28899 ft 295 kts 102°
2026-04-30 22:48 -2.64713 -43.96261 28904 ft 295 kts 102°
2026-04-30 22:49 -2.66037 -43.90232 28902 ft 296 kts 102°
2026-04-30 22:49 -2.67300 -43.84187 28893 ft 296 kts 102°
2026-04-30 22:50 -2.68992 -43.76157 28904 ft 296 kts 102°
2026-04-30 22:51 -2.69840 -43.72129 28906 ft 296 kts 102°
2026-04-30 22:51 -2.70689 -43.68095 28906 ft 296 kts 102°
2026-04-30 22:52 -2.71114 -43.66077 28900 ft 296 kts 102°
2026-04-30 22:52 -2.71956 -43.62074 28909 ft 296 kts 101°
2026-04-30 22:53 -2.72766 -43.58034 28910 ft 296 kts 98°
2026-04-30 22:53 -2.73368 -43.53957 28910 ft 296 kts 98°
2026-04-30 22:53 -2.73680 -43.51919 28910 ft 296 kts 98°
2026-04-30 22:54 -2.74292 -43.47842 28910 ft 296 kts 98°
2026-04-30 22:55 -2.75212 -43.41718 28904 ft 297 kts 98°
2026-04-30 22:55 -2.75823 -43.37631 28569 ft 300 kts 98°
2026-04-30 22:56 -2.76459 -43.33416 27823 ft 312 kts 98°
2026-04-30 22:56 -2.77443 -43.26860 26742 ft 322 kts 98°
2026-04-30 22:57 -2.78118 -43.22425 26042 ft 322 kts 98°
2026-04-30 22:57 -2.78768 -43.18044 25361 ft 319 kts 98°
2026-04-30 22:58 -2.79426 -43.13667 24688 ft 317 kts 98°
2026-04-30 22:59 -2.80398 -43.07179 23680 ft 313 kts 98°
2026-04-30 22:59 -2.81369 -43.00695 22256 ft 314 kts 98°